Wind_Speed
10 10 9 9 10 10 10 11 12 12 12 12 13 13 13 14 15 15 15 14 14 15 16 16 17 18 18 18 17 17 17 17 16 16 17 18 18 18 19 20 20 20 20
12 12 11 11 11 11 12 12 12 13 14 13 14 14 14 15 15 15 15 16 16 17 17 17 17 18 17 17 17 17 18 17 17 17 18 18 18 20 20 21 21 21 21
14 13 13 13 13 13 13 13 13 14 14 14 14 15 15 16 16 16 16 17 18 18 18 17 18 18 17 17 18 18 18 18 18 18 17 18 19 20 20 21 22 22 22
15 16 15 14 14 15 14 15 15 15 16 16 16 17 17 18 18 18 18 19 20 20 19 18 18 18 18 18 18 18 18 19 19 19 19 19 20 20 20 21 21 21 22
16 17 17 17 17 16 16 17 17 17 18 18 19 20 20 20 20 20 20 21 21 21 21 19 19 19 19 19 19 19 19 19 19 19 20 20 21 21 21 21 22 22 22
18 18 19 19 19 18 19 20 20 20 20 20 20 21 22 22 22 22 22 22 23 22 22 21 21 21 21 21 21 20 20 20 20 20 21 21 22 22 22 23 23 23 23
21 21 21 21 22 21 21 21 21 22 23 23 23 23 23 24 24 24 24 24 24 24 23 23 23 23 23 22 22 21 21 22 22 22 22 22 23 23 24 24 24 24 23
23 23 23 24 24 23 24 24 24 24 25 25 25 24 24 24 25 25 26 26 26 24 24 25 25 25 24 24 23 23 24 23 23 23 23 23 24 24 24 24 24 25 25
24 24 25 25 26 25 25 25 25 25 25 26 26 27 27 27 27 27 27 26 26 26 26 26 26 26 25 26 26 26 25 25 25 25 25 25 25 25 25 25 25 25 24
27 27 28 27 27 26 26 27 27 27 27 27 28 28 29 28 28 28 27 27 27 27 27 27 27 26 27 27 27 26 25 25 26 26 26 26 26 26 26 26 26 26 26
29 29 29 29 28 27 27 28 28 29 29 29 30 30 30 29 29 29 28 28 28 28 28 28 28 28 28 28 28 27 26 26 26 26 26 27 27 27 27 28 28 28 28
30 29 29 30 29 28 29 29 30 30 31 31 31 31 31 30 30 30 30 30 29 29 29 29 29 29 29 29 29 27 26 27 27 27 27 28 28 29 29 29 29 29 30
31 30 31 31 31 31 31 30 30 31 31 31 31 32 31 31 31 31 31 30 31 30 30 29 29 29 28 29 29 29 28 28 28 29 29 29 29 30 30 30 30 30 31
32 31 31 31 31 32 31 31 31 30 31 31 32 32 32 31 32 32 32 31 30 30 31 30 30 30 30 30 30 30 30 30 30 30 30 30 30 31 31 31 31 31 32
31 31 31 31 31 31 31 31 32 32 32 32 32 32 32 31 32 32 31 31 30 31 31 31 31 31 31 31 31 31 32 31 31 31 31 31 31 31 31 31 32 33 33
31 31 31 31 31 31 30 31 32 32 32 32 32 33 32 32 33 32 31 31 31 32 32 32 32 33 33 33 32 32 33 32 32 32 32 32 31 32 32 32 33 34 35
30 30 30 31 31 30 30 31 31 32 32 32 32 32 33 32 32 31 31 32 32 33 33 33 33 34 34 34 34 34 34 34 33 32 32 32 32 33 33 34 34 34 35
30 30 30 29 29 29 29 30 31 31 31 31 32 32 32 32 32 32 33 33 33 33 34 34 34 34 34 34 34 34 33 33 32 32 32 32 33 33 34 34 34 34 34
29 29 29 29 28 28 28 29 30 30 31 31 32 31 31 32 33 33 33 33 34 34 34 33 33 34 34 34 34 33 33 32 31 31 31 32 32 33 33 34 34 35 35
29 29 29 29 29 28 29 29 29 29 30 30 31 31 32 32 32 32 32 33 33 33 33 33 33 33 33 33 33 33 32 31 32 32 31 31 31 32 33 33 33 34 35
29 30 30 30 29 29 29 29 30 30 30 31 31 32 32 32 32 32 32 32 32 32 33 32 31 32 31 31 31 31 31 32 32 32 33 32 32 33 33 33 34 35 35
29 29 30 31 30 30 30 30 30 30 30 30 31 31 31 31 31 31 31 31 31 31 31 30 30 30 30 30 31 30 30 31 31 32 33 33 33 33 33 33 34 36 36
30 30 30 31 30 30 30 30 30 30 30 30 29 29 30 30 30 31 31 30 29 29 29 29 29 29 29 30 30 30 31 31 32 33 33 34 34 34 35 35 35 35 35
29 30 30 30 30 30 30 29 29 29 30 30 30 29 29 29 29 29 29 28 28 28 28 29 29 30 29 29 29 30 31 31 32 32 33 34 34 34 35 35 35 35 36
28 29 29 29 29 29 29 29 29 29 29 28 28 29 29 28 29 28 28 28 27 27 27 27 28 28 29 29 30 31 31 31 32 33 33 34 34 34 35 35 35 35 36
28 28 28 28 28 29 29 29 29 29 28 28 28 28 28 28 27 27 27 27 26 27 27 27 27 28 30 30 31 31 32 33 33 34 34 34 34 34 34 34 35 35 35
Wind_Direction
297 298 299 299 300 303 304 305 306 306 304 304 306 306 307 309 310 313 314 311 310 310 309 307 306 304 299 299 299 296 293 290 288 283 280 279 277 276 275 275 275 276 276
293 292 291 291 294 296 297 300 302 304 305 306 306 304 304 306 308 310 311 310 308 309 310 311 309 307 304 301 300 298 296 293 288 284 282 282 281 280 277 276 275 276 276
291 291 290 288 290 292 293 294 297 301 304 304 305 304 304 304 305 306 307 307 306 307 309 308 308 307 303 301 299 297 294 292 290 288 284 285 288 285 280 277 276 276 276
289 290 289 284 287 288 289 291 293 296 300 302 302 302 302 301 301 301 303 304 305 306 305 306 306 306 304 300 299 298 294 292 290 289 285 285 288 284 282 280 280 279 278
290 290 288 288 287 287 288 291 293 295 296 298 300 300 297 295 296 297 298 300 301 303 304 303 302 300 302 302 300 299 297 295 292 289 288 286 288 286 283 282 282 282 282
287 287 288 289 289 289 291 292 293 296 298 300 300 298 297 295 293 294 295 297 299 299 299 300 300 300 299 300 300 298 297 296 293 291 290 288 288 287 283 283 283 283 281
287 285 285 287 288 289 290 291 291 293 296 299 297 297 297 297 293 294 295 295 296 297 296 296 297 296 296 296 296 299 300 296 293 293 292 291 289 289 285 283 283 283 281
287 286 287 286 286 286 286 287 288 290 293 296 296 297 296 296 293 292 292 294 293 294 294 294 294 293 292 293 293 295 297 297 293 293 293 292 290 289 288 286 285 284 283
286 286 287 286 285 285 286 289 289 290 291 293 295 295 294 293 292 291 291 291 290 290 290 292 293 293 291 291 291 292 293 292 292 293 293 293 292 290 288 286 286 285 285
284 284 287 290 289 287 286 287 288 289 291 292 293 294 294 293 291 291 291 290 292 291 290 291 291 291 290 289 290 291 290 290 290 290 291 292 290 289 288 287 287 287 284
287 288 289 289 289 287 286 285 285 286 287 290 291 292 293 293 293 292 291 291 292 291 290 291 291 291 289 288 289 289 287 288 288 288 289 290 290 289 289 288 287 287 286
288 289 288 288 287 285 284 284 284 285 286 287 289 289 291 291 291 291 290 289 291 291 290 291 292 291 290 289 290 290 289 290 291 290 290 290 289 289 290 289 287 286 286
288 288 288 287 287 286 285 285 286 286 286 287 288 289 289 290 290 290 290 290 290 289 289 290 290 290 291 291 292 290 290 291 292 292 291 291 289 289 290 289 288 287 287
288 288 287 287 287 286 286 285 285 287 288 288 289 289 289 289 288 289 290 291 289 287 288 288 288 288 289 291 293 291 290 290 291 292 291 290 290 290 289 288 287 287 288
287 288 288 287 287 287 287 286 286 286 288 287 288 289 288 288 290 290 290 289 288 287 287 287 287 288 289 290 291 291 291 290 290 290 290 290 290 290 290 289 288 289 288
286 286 287 287 286 286 287 287 287 287 287 287 287 287 287 287 288 287 287 287 286 285 286 286 286 287 288 289 290 290 289 289 289 289 289 290 290 290 291 291 291 290 289
284 284 285 286 286 286 286 287 287 287 287 286 285 286 287 287 287 286 285 285 284 283 283 284 285 286 287 288 289 290 290 289 287 287 288 288 288 290 291 291 292 291 290
283 283 284 286 286 287 287 287 287 287 287 286 285 285 286 285 286 286 285 285 284 284 283 283 285 286 287 288 289 290 291 290 288 288 288 288 289 290 291 291 292 292 291
283 283 284 286 287 288 288 288 288 288 287 286 287 286 287 287 288 288 288 288 287 287 285 284 285 286 286 287 289 290 290 289 288 288 289 290 290 290 291 292 292 292 292
283 284 285 285 286 288 289 289 288 288 287 288 287 287 288 290 290 291 290 290 290 288 286 286 286 286 287 288 288 289 290 289 288 288 290 291 292 293 293 293 293 293 293
283 283 284 285 287 287 288 288 289 288 289 289 289 290 291 292 292 292 292 291 290 288 287 287 286 286 287 288 289 289 289 289 289 288 289 291 293 294 294 294 294 294 294
285 285 285 286 286 287 288 288 289 289 290 291 291 291 292 292 292 292 291 290 290 290 291 289 287 287 287 289 289 290 290 289 289 289 290 290 290 292 293 294 294 295 295
284 284 287 289 289 289 288 288 289 290 291 291 291 290 292 294 294 293 292 291 290 289 289 289 289 288 288 290 289 289 290 290 291 290 292 292 292 292 292 294 295 296 295
283 286 288 289 290 290 290 290 291 291 292 292 292 294 294 294 294 294 292 290 288 288 289 288 288 289 290 290 291 292 292 293 295 296 295 294 293 294 294 293 294 295 294
285 287 289 290 291 291 290 290 290 291 292 291 292 294 295 295 295 294 293 291 289 289 289 289 290 291 291 291 292 293 294 295 296 297 297 296 296 296 295 295 295 294 293
286 287 289 290 291 291 290 290 289 289 289 290 291 294 295 294 294 293 292 291 290 289 289 291 292 293 293 293 293 294 296 296 296 297 297 296 296 296 296 296 296 295 294
Height
5888 5887 5886 5886 5885 5884 5883 5881 5880 5879 5877 5875 5874 5872 5870 5869 5867 5865 5863 5862 5860 5858 5855 5853 5851 5849 5847 5845 5844 5843 5842 5841 5840 5839 5838 5837 5836 5835 5834 5833 5832 5832 5831
5885 5884 5883 5882 5882 5881 5879 5878 5877 5876 5874 5872 5870 5869 5867 5865 5864 5862 5860 5858 5856 5854 5851 5850 5847 5845 5843 5841 5840 5838 5837 5836 5835 5834 5833 5831 5830 5829 5828 5828 5827 5826 5825
5881 5880 5880 5879 5878 5877 5876 5874 5873 5872 5870 5868 5867 5865 5863 5862 5860 5858 5856 5854 5852 5850 5847 5845 5843 5841 5839 5837 5836 5834 5833 5831 5829 5828 5827 5826 5825 5823 5822 5821 5820 5820 5819
5878 5877 5876 5875 5874 5873 5871 5870 5869 5867 5866 5864 5862 5861 5859 5857 5856 5854 5852 5850 5848 5845 5843 5841 5839 5837 5835 5833 5831 5829 5827 5826 5824 5823 5822 5821 5819 5817 5816 5815 5814 5813 5813
5874 5873 5872 5871 5870 5869 5867 5865 5864 5863 5861 5859 5858 5856 5854 5852 5851 5849 5847 5845 5843 5841 5838 5836 5834 5832 5830 5828 5826 5824 5822 5821 5819 5818 5816 5815 5813 5811 5810 5809 5808 5808 5807
5870 5868 5867 5866 5865 5864 5863 5861 5860 5858 5856 5854 5853 5851 5849 5847 5845 5844 5842 5840 5837 5835 5833 5831 5829 5827 5825 5823 5821 5819 5817 5815 5814 5812 5810 5809 5807 5805 5804 5803 5802 5801 5800
5865 5864 5862 5861 5860 5858 5857 5856 5854 5853 5851 5850 5848 5846 5844 5841 5839 5838 5835 5833 5831 5830 5828 5826 5824 5822 5820 5818 5815 5814 5812 5809 5808 5806 5804 5802 5800 5799 5797 5796 5795 5794 5793
5859 5857 5856 5855 5853 5852 5851 5849 5848 5847 5845 5843 5842 5839 5837 5835 5833 5831 5829 5826 5825 5823 5821 5819 5817 5815 5813 5811 5809 5808 5806 5804 5801 5799 5798 5796 5794 5792 5791 5789 5788 5787 5786
5852 5851 5849 5848 5846 5845 5843 5842 5841 5839 5838 5836 5835 5832 5830 5828 5826 5824 5821 5819 5817 5816 5814 5812 5810 5808 5807 5805 5803 5801 5799 5797 5795 5793 5791 5789 5787 5785 5783 5782 5781 5780 5779
5845 5843 5842 5840 5838 5837 5836 5835 5833 5832 5831 5829 5827 5825 5822 5820 5818 5816 5814 5812 5810 5809 5807 5805 5803 5801 5799 5797 5796 5794 5792 5790 5788 5786 5784 5782 5780 5778 5776 5775 5773 5772 5771
5837 5835 5834 5832 5830 5829 5828 5826 5825 5824 5823 5821 5820 5817 5815 5813 5810 5808 5806 5804 5803 5801 5800 5798 5796 5793 5791 5790 5788 5786 5784 5782 5780 5778 5777 5775 5773 5771 5769 5767 5765 5764 5763
5829 5827 5826 5824 5822 5820 5819 5818 5817 5816 5815 5813 5811 5809 5807 5805 5803 5800 5798 5796 5795 5794 5792 5790 5788 5786 5784 5782 5781 5779 5777 5775 5773 5771 5769 5768 5765 5763 5761 5759 5757 5756 5754
5821 5819 5818 5816 5814 5812 5811 5810 5808 5807 5806 5804 5802 5801 5799 5797 5795 5792 5789 5788 5786 5785 5784 5782 5780 5778 5776 5774 5773 5771 5769 5767 5766 5764 5761 5759 5757 5755 5753 5751 5749 5747 5745
5813 5811 5809 5807 5805 5804 5802 5801 5800 5798 5797 5795 5794 5792 5790 5788 5786 5784 5781 5779 5777 5776 5775 5773 5772 5770 5768 5766 5765 5763 5761 5759 5757 5755 5753 5751 5748 5746 5744 5742 5740 5738 5736
5804 5802 5800 5799 5797 5795 5794 5792 5791 5790 5788 5787 5785 5783 5781 5779 5777 5774 5772 5771 5769 5768 5766 5764 5763 5761 5760 5758 5756 5754 5752 5750 5748 5746 5744 5742 5739 5737 5735 5733 5730 5728 5726
5795 5793 5792 5790 5788 5786 5785 5784 5782 5781 5779 5777 5775 5773 5771 5769 5767 5765 5763 5762 5760 5759 5757 5756 5755 5753 5751 5749 5747 5745 5743 5741 5739 5736 5734 5732 5730 5728 5725 5723 5720 5718 5716
5786 5785 5783 5781 5779 5777 5776 5774 5773 5772 5770 5768 5766 5764 5762 5760 5758 5756 5754 5753 5751 5750 5748 5747 5745 5743 5742 5740 5738 5735 5733 5731 5728 5726 5724 5722 5720 5718 5715 5713 5710 5707 5705
5777 5776 5774 5772 5770 5769 5767 5766 5764 5762 5761 5759 5757 5755 5752 5750 5748 5747 5745 5744 5742 5741 5739 5737 5736 5734 5732 5730 5728 5725 5723 5721 5719 5717 5714 5712 5710 5708 5705 5702 5700 5697 5694
5768 5766 5765 5764 5762 5761 5759 5757 5755 5753 5752 5750 5748 5746 5744 5741 5739 5738 5736 5735 5733 5731 5729 5727 5726 5724 5722 5720 5718 5716 5713 5711 5709 5707 5704 5702 5700 5697 5694 5692 5689 5686 5684
5758 5757 5756 5755 5754 5752 5751 5749 5747 5744 5743 5741 5739 5737 5735 5733 5731 5729 5727 5725 5723 5721 5719 5718 5716 5714 5712 5711 5708 5706 5703 5701 5699 5697 5695 5692 5690 5687 5685 5682 5679 5676 5673
5749 5749 5748 5746 5745 5743 5742 5740 5738 5736 5734 5732 5731 5728 5726 5724 5722 5720 5718 5716 5714 5712 5710 5708 5706 5704 5703 5701 5698 5696 5694 5692 5690 5687 5685 5682 5680 5677 5675 5672 5669 5666 5663
5741 5740 5739 5737 5736 5735 5733 5732 5730 5728 5726 5723 5721 5719 5717 5715 5713 5710 5708 5706 5704 5702 5700 5699 5697 5695 5693 5691 5689 5687 5685 5682 5680 5677 5674 5672 5670 5667 5664 5661 5658 5655 5652
5734 5732 5731 5729 5728 5726 5725 5723 5721 5719 5717 5715 5712 5709 5707 5705 5703 5701 5699 5697 5695 5693 5691 5689 5688 5686 5684 5682 5680 5677 5675 5672 5670 5667 5664 5661 5659 5656 5653 5650 5647 5644 5641
5725 5724 5722 5721 5719 5718 5716 5714 5712 5710 5708 5706 5703 5700 5698 5696 5693 5691 5689 5687 5685 5683 5682 5680 5678 5677 5675 5673 5670 5668 5665 5662 5659 5656 5653 5651 5648 5645 5642 5639 5636 5633 5630
5717 5715 5714 5712 5711 5709 5707 5705 5703 5701 5699 5696 5694 5692 5689 5687 5684 5682 5680 5678 5676 5674 5673 5671 5669 5667 5665 5663 5661 5658 5655 5652 5649 5646 5643 5640 5637 5634 5631 5628 5625 5622 5619
5709 5707 5706 5704 5702 5700 5698 5696 5694 5692 5690 5688 5685 5683 5681 5678 5676 5673 5671 5669 5667 5666 5664 5662 5660 5658 5656 5653 5651 5648 5645 5642 5639 5636 5633 5629 5626 5623 5620 5617 5614 5611 5608